Flag for Germany Weather past 2 weeks in Lindlar, North Rhine-Westphalia, Germany

Now
42 °F

Partly sunny.


Feels Like: 39 °F
Forecast: 32 / 39 °F
Wind: 5 mph from South

Location: Koeln / Bonn

Current Time: Mar 3, 2015 at 10:15:26 AM

Latest Report: Mar 3, 2015 at 10:00 AM


Visibility: 34 mi

Pressure: 30.11 "Hg

Humidity: 67%

Dew point: 32 °F

Location of LindlarLocation

Historic Weather in Lindlar — Graph

°F

Lindlar temperature yesterday

Maximum temperature yesterday: 48 °F (at 2:00 PM)
Minimum temperature yesterday: 36 °F (at 7:00 PM)
Average temperature yesterday: 42 °F

Past Weeks' High & Low Weather Summary

 TemperatureHumidityPressure
High51 °F (Mar 1, 12:00 PM)100% (Feb 17, 9:00 AM)30.78 "Hg (Feb 17, 9:00 AM)
Low28 °F (Feb 28, 6:00 AM)42% (Feb 28, 4:00 PM)29.38 "Hg (Feb 21, 5:00 AM)
Average39 °F81%29.98 "Hg
* Reported Feb 16 9:00 AM — Mar 3 9:00 AM, Lindlar, Weather by CustomWeather, © 2015

Note: Actual official high and low records may vary slightly from our data, if they occured in-between our weather recording intervals... More about our weather records

Advertising

Lindlar weather history for previous 24 hours

 ConditionsComfort  
Time TempWeatherWind HumidityBarometerVisibility
9:00 AM
Tue, Mar 3
39 °FOvercast.3 mph74%30.12 "Hg25 mi
8:00 AM34 °FPassing clouds.3 mph85%30.11 "Hg28 mi
7:00 AM33 °FPassing clouds.3 mph85%30.11 "Hg25 mi
6:00 AM35 °FOvercast.3 mph83%30.11 "Hg25 mi
5:00 AM35 °FPassing clouds.3 mph82%30.10 "Hg25 mi
4:00 AM36 °FPassing clouds.3 mph81%30.09 "Hg25 mi
3:00 AM36 °FPassing clouds.3 mph80%30.09 "Hg25 mi
2:00 AM38 °FClear.6 mph75%30.07 "Hg22 mi
1:00 AM37 °FClear.5 mph76%30.06 "Hg25 mi
12:00 AM38 °FPassing clouds.6 mph75%30.03 "Hg25 mi
11:00 PM
Mon, Mar 2
37 °FPassing clouds.6 mph77%30.01 "Hg25 mi
10:00 PM37 °FPassing clouds.3 mph80%29.98 "Hg25 mi
9:00 PM37 °FPassing clouds.5 mph78%29.94 "Hg25 mi
8:00 PM37 °FPassing clouds.3 mph81%29.90 "Hg12 mi
7:00 PM36 °FPassing clouds.3 mph90%29.88 "Hg25 mi
6:00 PM38 °FPassing clouds.6 mph86%29.85 "Hg25 mi
5:00 PM37 °FSprinkles. Low clouds.7 mph94%29.80 "Hg16 mi
4:00 PM42 °FLight rain. Overcast.10 mphN/A29.75 "Hg16 mi
3:00 PM48 °FOvercast.7 mph51%29.72 "Hg31 mi
2:00 PM48 °FPartly sunny.6 mph49%29.73 "Hg43 mi
1:00 PM46 °FScattered clouds.7 mph53%29.74 "Hg43 mi
12:00 PM46 °FPassing clouds.7 mph58%29.73 "Hg37 mi
11:00 AM43 °FPartly sunny.7 mph72%29.72 "Hg31 mi
10:00 AM43 °FScattered clouds.6 mph79%29.70 "Hg31 mi
Weather by CustomWeather, © 2015

See weather overviewHow to use our weather pages